SCP
-0 -0 -0 -0 -0 -1 -1 -0 -0 -0 -1 -0 -0 -0 -0 0 -0 -0 0 -0 -0 -0 0 0 0 0 0 0 0 0 0 0 0
0 0 -0 -0 0 -1 -1 -0 -0 -1 -2 -1 -0 -0 -0 -0 -0 0 -0 -0 -0 0 0 0 -0 0 0 0 0 0 0 0 0
-0 -0 -0 -0 -0 0 -0 -0 -0 -1 -1 -1 -0 -0 -0 -0 -0 -0 0 0 -0 -0 0 0 0 0 0 0 0 0 0 0 0
-0 -0 -0 -0 -0 -0 -0 0 -0 -1 -1 -1 -0 -0 -0 -0 -0 -0 -0 -0 -0 0 0 0 0 0 0 0 0 0 0 0 0
-0 -0 -0 -0 -0 -0 -0 -0 -0 -0 -0 -1 -0 -0 -0 -0 -0 -0 -0 -0 -0 -0 -0 -0 0 0 0 0 0 0 0 0 0
0 -0 -0 -0 -0 -0 -0 -0 0 -0 -0 -0 -0 -0 -0 -0 -0 -0 -0 -0 -0 -0 -0 0 0 0 0 0 0 0 0 0 0
0 0 -0 0 -0 -0 -0 0 0 -0 -0 -0 -0 -0 -0 -0 -0 -0 -0 -0 0 0 0 0 0 0 0 -0 -0 0 0 0 0
0 0 -0 0 -0 -0 -0 0 -0 -0 -0 -0 -0 0 -0 -0 0 0 0 0 0 0 0 0 0 0 0 0 0 0 0 0 0
0 -0 0 -0 0 -0 -0 0 0 -0 0 -0 -0 -0 -0 -0 0 -0 0 0 0 1 1 1 1 0 0 0 0 0 0 0 0
-0 -0 0 -0 -0 0 -0 -0 -0 -0 -0 -0 -1 -1 -0 -0 -0 -0 0 0 0 0 0 -0 -0 0 0 0 0 0 0 0 0
-0 -0 0 -0 -0 0 -0 -0 -0 -1 -1 -1 -1 -0 -0 -0 -0 -0 -0 -0 -0 0 0 0 0 0 0 0 0 0 0 0 0
-0 -0 -0 0 -0 -0 0 0 -1 -1 -1 -1 -1 -0 -0 -0 -0 -0 0 0 0 0 0 0 0 0 0 0 0 0 0 0 0
-0 -0 -0 0 0 0 -1 -1 -2 -2 -2 -1 -1 -0 -0 -0 0 0 0 0 0 0 0 0 0 0 0 0 0 0 0 0 0
0 -0 -0 -0 -0 -0 -1 -1 -1 -1 -0 -0 -1 -0 -0 0 0 0 0 0 0 0 0 0 0 0 0 0 0 0 0 0 0
0 0 -0 -0 0 -1 -1 -0 -0 -0 -0 -1 -0 0 0 -0 -0 0 0 0 0 0 0 0 0 0 0 0 0 0 0 0 0
0 0 0 -0 -0 -0 0 0 0 -0 -0 -0 -0 -0 -0 -0 -0 -0 0 0 0 0 0 0 0 0 0 0 0 0 0 0 0
0 1 1 0 -1 -0 -0 0 0 -0 -0 -0 -0 -0 -0 -0 -0 0 0 0 0 0 0 0 0 0 0 0 0 0 0 0 0
1 1 1 1 1 0 -1 -0 -0 -0 -0 -0 -0 -0 -0 0 0 0 0 0 0 0 0 0 0 0 0 0 0 0 0 0 0
3 3 3 2 2 1 -0 -1 -0 -0 -0 -0 -0 -0 0 0 0 0 0 0 0 0 0 0 -0 0 0 0 0 0 0 0 0
1 4 3 4 3 3 1 -0 0 0 0 -0 -0 0 0 0 0 0 0 0 0 0 0 0 0 0 0 0 0 0 0 0 0
Wind_Speed_500mb
53 50 50 54 66 72 65 58 64 62 61 48 47 43 41 33 32 34 30 23 16 14 7 6 10 14 21 17 14 14 12 12 7
48 47 48 47 46 67 70 66 61 56 59 52 50 46 45 41 37 32 26 20 26 21 24 20 25 31 30 21 20 22 25 18 16
43 41 45 44 46 46 47 52 61 63 60 48 58 47 42 42 43 39 36 37 40 32 31 31 34 31 29 29 26 25 28 28 29
44 40 43 41 43 45 45 43 49 48 49 47 47 45 48 45 39 36 35 39 45 46 44 40 41 42 37 32 30 30 35 35 35
46 39 40 42 44 45 44 42 45 48 50 45 41 40 43 46 39 38 37 36 29 32 33 30 34 34 31 29 30 32 38 40 30
55 44 43 47 48 53 49 42 42 42 45 45 41 38 39 37 40 38 39 34 36 27 31 36 36 27 23 27 29 32 28 32 25
56 48 51 53 51 48 49 41 39 37 38 39 36 40 34 38 36 37 30 28 30 32 29 33 30 24 29 33 33 31 24 27 26
40 45 49 52 50 58 50 46 41 38 33 34 33 34 35 31 30 29 27 19 26 28 28 20 22 22 21 24 27 28 24 22 20
28 38 38 58 52 55 45 43 40 41 40 33 30 38 29 31 29 31 28 36 26 24 21 22 19 19 24 22 27 24 24 24 21
29 28 38 41 36 35 29 35 45 39 43 29 40 37 40 32 33 36 31 24 21 20 21 23 25 21 20 22 23 21 19 15 14
30 33 33 36 37 29 28 33 35 41 42 38 41 35 35 38 33 30 26 25 22 23 18 17 17 18 22 15 17 17 15 9 7
30 33 40 45 39 37 30 40 43 40 41 41 44 36 39 32 29 25 23 22 16 14 16 15 14 11 13 12 10 8 3 10 6
22 31 39 41 41 33 35 38 47 49 51 41 37 39 34 29 27 24 22 20 18 14 7 5 3 2 3 6 6 2 11 15 6
27 34 44 42 41 42 39 33 31 45 43 44 43 38 40 35 30 24 19 16 11 16 21 14 8 4 8 11 12 12 10 17 16
34 41 47 45 43 48 43 39 41 44 45 50 48 43 35 27 19 15 17 16 18 17 16 9 15 20 16 18 16 15 15 14 22
38 40 46 45 44 46 40 46 51 52 56 52 45 36 28 25 24 17 14 16 17 21 20 19 19 17 8 12 17 18 22 15 9
32 38 44 46 48 44 48 50 52 56 52 45 42 35 32 28 22 20 23 25 22 14 14 12 12 10 10 13 15 7 7 12 8
18 36 41 44 51 53 53 51 54 54 48 48 43 37 31 27 27 35 35 31 29 25 25 23 24 22 19 14 9 10 15 10 9
18 5 49 46 51 58 56 57 54 49 52 52 45 39 34 32 37 34 34 37 33 27 29 27 27 24 21 23 6 7 7 7 11
30 20 9 61 59 62 66 63 58 52 56 54 45 39 39 36 37 37 28 30 35 28 30 30 26 21 15 14 8 10 12 16 22
Wind_Direction_500mb
183 184 186 190 188 186 189 194 195 190 193 199 205 208 211 217 213 217 220 224 210 239 278 207 250 277 295 280 268 283 289 278 308
176 178 177 188 193 183 188 188 192 187 186 195 208 213 217 221 227 223 225 236 255 258 238 244 283 272 282 276 264 265 276 267 269
171 174 174 179 187 193 188 186 191 200 215 218 213 209 226 231 235 239 225 218 226 227 231 234 239 256 272 281 275 270 269 274 278
165 173 175 173 180 183 188 195 192 198 200 204 212 224 214 230 236 237 247 236 234 244 254 255 252 260 267 258 264 278 284 285 276
162 178 178 173 174 171 180 190 194 199 200 203 208 216 216 219 230 226 237 257 249 255 270 272 275 273 269 265 266 270 272 280 293
154 172 180 171 167 166 172 179 188 192 200 206 210 214 219 217 225 233 232 236 254 249 255 267 274 273 275 288 286 280 286 282 268
159 178 184 169 165 165 168 172 180 187 189 200 201 206 211 217 217 225 231 238 236 247 253 258 269 268 270 273 282 278 289 289 289
170 183 196 160 176 159 168 168 177 181 186 189 195 195 206 211 202 208 223 221 227 222 238 256 281 272 274 276 275 287 295 299 287
175 190 217 143 207 168 156 173 178 189 186 192 200 194 185 205 208 200 210 211 214 224 234 238 251 253 262 266 287 299 309 305 298
166 187 210 162 156 151 163 183 190 193 192 189 197 194 195 206 217 214 214 221 219 211 223 236 250 255 262 267 282 292 305 311 318
166 176 193 176 179 175 185 186 180 187 183 189 194 201 195 204 213 209 206 210 198 205 208 220 236 245 272 297 302 307 308 312 326
168 176 182 187 180 192 185 173 176 177 170 188 195 197 192 197 198 192 178 176 174 190 208 226 239 255 288 322 325 337 56 101 115
169 176 181 181 180 167 169 165 168 167 174 185 182 186 177 173 164 163 162 190 205 215 199 168 260 240 339 359 349 347 146 127 112
172 174 171 178 178 166 167 164 173 167 170 167 178 170 158 164 177 195 201 203 195 154 159 185 193 77 79 63 59 69 126 176 134
173 172 165 168 160 158 165 161 158 163 163 174 182 177 176 177 180 191 192 183 176 184 182 155 106 80 52 47 55 72 88 120 146
175 172 160 165 160 157 156 167 167 168 178 189 184 174 170 170 182 192 175 160 152 132 110 94 85 93 117 34 39 64 80 87 117
179 176 166 166 163 160 162 170 178 192 192 186 178 173 173 181 182 166 140 120 105 117 141 144 148 151 168 160 172 188 113 110 63
196 182 174 173 169 169 168 173 191 198 194 182 178 178 177 169 163 147 149 161 175 185 174 164 177 183 180 216 245 176 180 175 183
320 272 181 178 176 175 176 182 197 198 187 181 182 176 170 169 155 168 172 182 180 184 194 192 199 206 215 216 237 149 140 132 126
329 288 248 182 185 182 184 190 201 198 183 182 180 179 167 164 165 166 173 193 199 204 196 208 220 219 198 197 165 122 108 108 113
Wind_Speed_850mb
53 50 50 54 66 72 65 58 64 62 61 48 47 43 41 33 32 34 30 23 16 14 7 6 10 14 21 17 14 14 12 12 7
48 47 48 47 46 67 70 66 61 56 59 52 50 46 45 41 37 32 26 20 26 21 24 20 25 31 30 21 20 22 25 18 16
43 41 45 44 46 46 47 52 61 63 60 48 58 47 42 42 43 39 36 37 40 32 31 31 34 31 29 29 26 25 28 28 29
44 40 43 41 43 45 45 43 49 48 49 47 47 45 48 45 39 36 35 39 45 46 44 40 41 42 37 32 30 30 35 35 35
46 39 40 42 44 45 44 42 45 48 50 45 41 40 43 46 39 38 37 36 29 32 33 30 34 34 31 29 30 32 38 40 30
55 44 43 47 48 53 49 42 42 42 45 45 41 38 39 37 40 38 39 34 36 27 31 36 36 27 23 27 29 32 28 32 25
56 48 51 53 51 48 49 41 39 37 38 39 36 40 34 38 36 37 30 28 30 32 29 33 30 24 29 33 33 31 24 27 26
40 45 49 52 50 58 50 46 41 38 33 34 33 34 35 31 30 29 27 19 26 28 28 20 22 22 21 24 27 28 24 22 20
28 38 38 58 52 55 45 43 40 41 40 33 30 38 29 31 29 31 28 36 26 24 21 22 19 19 24 22 27 24 24 24 21
29 28 38 41 36 35 29 35 45 39 43 29 40 37 40 32 33 36 31 24 21 20 21 23 25 21 20 22 23 21 19 15 14
30 33 33 36 37 29 28 33 35 41 42 38 41 35 35 38 33 30 26 25 22 23 18 17 17 18 22 15 17 17 15 9 7
30 33 40 45 39 37 30 40 43 40 41 41 44 36 39 32 29 25 23 22 16 14 16 15 14 11 13 12 10 8 3 10 6
22 31 39 41 41 33 35 38 47 49 51 41 37 39 34 29 27 24 22 20 18 14 7 5 3 2 3 6 6 2 11 15 6
27 34 44 42 41 42 39 33 31 45 43 44 43 38 40 35 30 24 19 16 11 16 21 14 8 4 8 11 12 12 10 17 16
34 41 47 45 43 48 43 39 41 44 45 50 48 43 35 27 19 15 17 16 18 17 16 9 15 20 16 18 16 15 15 14 22
38 40 46 45 44 46 40 46 51 52 56 52 45 36 28 25 24 17 14 16 17 21 20 19 19 17 8 12 17 18 22 15 9
32 38 44 46 48 44 48 50 52 56 52 45 42 35 32 28 22 20 23 25 22 14 14 12 12 10 10 13 15 7 7 12 8
18 36 41 44 51 53 53 51 54 54 48 48 43 37 31 27 27 35 35 31 29 25 25 23 24 22 19 14 9 10 15 10 9
18 5 49 46 51 58 56 57 54 49 52 52 45 39 34 32 37 34 34 37 33 27 29 27 27 24 21 23 6 7 7 7 11
30 20 9 61 59 62 66 63 58 52 56 54 45 39 39 36 37 37 28 30 35 28 30 30 26 21 15 14 8 10 12 16 22
Wind_Direction_850mb
183 184 186 190 188 186 189 194 195 190 193 199 205 208 211 217 213 217 220 224 210 239 278 207 250 277 295 280 268 283 289 278 308
176 178 177 188 193 183 188 188 192 187 186 195 208 213 217 221 227 223 225 236 255 258 238 244 283 272 282 276 264 265 276 267 269
171 174 174 179 187 193 188 186 191 200 215 218 213 209 226 231 235 239 225 218 226 227 231 234 239 256 272 281 275 270 269 274 278
165 173 175 173 180 183 188 195 192 198 200 204 212 224 214 230 236 237 247 236 234 244 254 255 252 260 267 258 264 278 284 285 276
162 178 178 173 174 171 180 190 194 199 200 203 208 216 216 219 230 226 237 257 249 255 270 272 275 273 269 265 266 270 272 280 293
154 172 180 171 167 166 172 179 188 192 200 206 210 214 219 217 225 233 232 236 254 249 255 267 274 273 275 288 286 280 286 282 268
159 178 184 169 165 165 168 172 180 187 189 200 201 206 211 217 217 225 231 238 236 247 253 258 269 268 270 273 282 278 289 289 289
170 183 196 160 176 159 168 168 177 181 186 189 195 195 206 211 202 208 223 221 227 222 238 256 281 272 274 276 275 287 295 299 287
175 190 217 143 207 168 156 173 178 189 186 192 200 194 185 205 208 200 210 211 214 224 234 238 251 253 262 266 287 299 309 305 298
166 187 210 162 156 151 163 183 190 193 192 189 197 194 195 206 217 214 214 221 219 211 223 236 250 255 262 267 282 292 305 311 318
166 176 193 176 179 175 185 186 180 187 183 189 194 201 195 204 213 209 206 210 198 205 208 220 236 245 272 297 302 307 308 312 326
168 176 182 187 180 192 185 173 176 177 170 188 195 197 192 197 198 192 178 176 174 190 208 226 239 255 288 322 325 337 56 101 115
169 176 181 181 180 167 169 165 168 167 174 185 182 186 177 173 164 163 162 190 205 215 199 168 260 240 339 359 349 347 146 127 112
172 174 171 178 178 166 167 164 173 167 170 167 178 170 158 164 177 195 201 203 195 154 159 185 193 77 79 63 59 69 126 176 134
173 172 165 168 160 158 165 161 158 163 163 174 182 177 176 177 180 191 192 183 176 184 182 155 106 80 52 47 55 72 88 120 146
175 172 160 165 160 157 156 167 167 168 178 189 184 174 170 170 182 192 175 160 152 132 110 94 85 93 117 34 39 64 80 87 117
179 176 166 166 163 160 162 170 178 192 192 186 178 173 173 181 182 166 140 120 105 117 141 144 148 151 168 160 172 188 113 110 63
196 182 174 173 169 169 168 173 191 198 194 182 178 178 177 169 163 147 149 161 175 185 174 164 177 183 180 216 245 176 180 175 183
320 272 181 178 176 175 176 182 197 198 187 181 182 176 170 169 155 168 172 182 180 184 194 192 199 206 215 216 237 149 140 132 126
329 288 248 182 185 182 184 190 201 198 183 182 180 179 167 164 165 166 173 193 199 204 196 208 220 219 198 197 165 122 108 108 113